Regional Weather Roundup
Issued by NWS Green Bay, WI

Home | Current Version | Previous Version | Text Only | Print | Product List | Glossary On
Versions: 1 2 3 4 5 6 7 8 9 10 11 12 13 14 15 16 17 18 19 20 21 22 23 24 25 26 27 28 29 30 31 32 33 34 35 36 37 38 39 40 41 42 43 44 45 46 47 48 49 50
783
ASUS43 KGRB 201900
RWRGRB

NORTH-CENTRAL AND NORTHEAST WISCONSIN REGIONAL WEATHER ROUNDUP
NATIONAL WEATHER SERVICE GREEN BAY WI
100 PM CST FRI JAN 20 2017

WIZ005-009-010>012-018-019-202000-
NORTH CENTRAL WISCONSIN

CITY           SKY/WX    TMP DP  RH WIND       PRES   REMARKS
IRONWOOD       LGT RAIN  38  33  82 E5        29.63F
MANITOWISH WTR NOT AVBL
ARBOR VITAE    NOT AVBL
EAGLE RIVER    NOT AVBL
LAND O LAKES   DRIZZLE   38  33  80 CALM      29.64F
RHINELANDER    LGT RAIN  36  35  96 E7        29.63F FOG
PHILLIPS       CLOUDY    37  36  96 E7        29.59F
ANTIGO         NOT AVBL
TOMAHAWK       NOT AVBL
MERRILL        RAIN      36  36 100 CALM        N/A
$$

WIZ013-073-202000-
NORTHEAST WISCONSIN

CITY           SKY/WX    TMP DP  RH WIND       PRES   REMARKS
IRON MOUNTAIN  CLOUDY    34  31  88 SE6       29.66S FOG
MARINETTE      NOT AVBL
$$

WIZ017-030-035>037-045-202000-
CENTRAL WISCONSIN

CITY           SKY/WX    TMP DP  RH WIND       PRES   REMARKS
MEDFORD        NOT AVBL
WAUSAU         LGT RAIN  35  34  96 E8        29.61F
MOSINEE        NOT AVBL
MARSHFIELD     CLOUDY    34  33  96 SE10      29.60F FOG
WISC RAPIDS    CLOUDY    36  35  96 SE6       29.63F FOG
STEVENS POINT  NOT AVBL
WAUPACA        DRIZZLE   37  35  91 CALM      29.65F
SHAWANO        LGT RAIN  36  34  95 CALM      29.67F
CLINTONVILLE   LGT RAIN  34  34 100 E6        29.66F
WAUTOMA        CLOUDY    35  34  96 E6        29.64F FOG
$$

WIZ038-039-048-051-202000-
FOX VALLEY

CITY           SKY/WX    TMP DP  RH WIND       PRES   REMARKS
NWS GREEN BAY  LGT RAIN  35  35 100 NE7       29.66F FOG
APPLETON       NOT AVBL
OSHKOSH        LGT RAIN  35  34  96 NE3       29.64F VSB 3/4
FOND DU LAC    CLOUDY    38  34  85 VRB6      29.64F FOG
$$

WIZ022-050-052-202000-
EAST CENTRAL WISCONSIN

CITY           SKY/WX    TMP DP  RH WIND       PRES   REMARKS
EPHRAIM        NOT AVBL
WASHINGTON ISL LGT RAIN  32  32 100 N3        29.67F
STURGEON BAY   FOG       34  33  96 NW6       29.69R VSB 1/4
MANITOWOC      NOT AVBL
SHEBOYGAN      CLOUDY    37  36  96 NE9       29.63F FOG
$$

LMZ563-521-522-541>543-202000-
LAKESHORE

STATION/POSITION TIME  TEMP    WIND        PRES    VSBY  WAVE
                       AIR SEA DIR/SP/G                  HT/PER
                 (UTC) (F)     (DEG/KT/KT) (MB)    (MI)  (FT/S)
SHEBOYGAN LKSHOR 1800   35      10/  6/  7 1005.0F
KEWAUNEE LKSHORE 1830   37      30/  4/  7 1004.5F
NORTHPORT PIER   1840   33      20/  3/  6 1005.4F
SISTER BAY LKSHO 1820   35        CALM       N/A
$$




USA.gov is the U.S. government's official web portal to all federal, state and local government web resources and services.